[[{"header":{"parameterUnit":"m.s-1","parameterCategory":2,"la1":30.2991,"la2":30.254,"lo1":-89.0895,"lo2":-89.0444,"dy":0.0017,"dx":0.0017,"nx":28,"ny":28,"refTime":"2023-11-15T09:00:00:Z","depth":"0","parameterNumber":2,"parameterNumberName":"U-component_of_CURRENTS"},"data":[0,0,0,0,0,0,0,0,0,0,0,0,0,0,0,0,0,0,0,0,0,0,0,0,0,0,0,0,0,0,0,0,0,0,0,0,0,0,0,0,0,0,0,0,0,0,0,0,0,0,0,0,0,0,0,0,0,0,-0.1484,-0.1484,0,-0.1515,-0.1515,-0.1515,-0.1531,-0.1532,-0.1532,-0.1532,-0.1527,-0.1526,-0.1526,0,0,0,0,0,0,0,0,0,0,0,0,0,-0.1463,-0.1463,-0.1484,-0.1484,-0.1485,-0.1515,-0.1515,-0.1515,-0.1531,-0.1532,-0.1532,-0.1532,-0.1527,-0.1526,-0.1526,0,0,0,0,0,0,0,0,0,0,0,0,0,-0.148,-0.1463,-0.1484,-0.1497,-0.1498,-0.1514,-0.1515,-0.1515,-0.1531,-0.1532,-0.1532,-0.1532,-0.1527,-0.1526,-0.1526,-0.1521,0,0,-0.1525,-0.1525,0,0,0,0,0,0,0,0,-0.1479,-0.1481,-0.1494,-0.1496,-0.1498,-0.152,-0.1506,-0.1516,-0.1531,-0.1518,-0.1532,-0.1532,-0.1521,-0.1522,-0.1526,-0.152,-0.152,-0.1525,-0.1525,-0.1525,-0.1524,0,0,0,0,0,0,0,-0.1478,-0.148,-0.1495,-0.1495,-0.1497,-0.151,-0.1512,-0.1508,-0.1517,-0.1519,-0.1521,-0.1525,-0.1522,-0.1527,-0.1526,-0.152,-0.1525,-0.1525,-0.1524,-0.1524,-0.152,-0.152,0,0,0,0,0,0,-0.1474,-0.1478,-0.1494,-0.1496,-0.149,-0.151,-0.1513,-0.1512,-0.1518,-0.152,-0.1525,-0.1526,-0.1527,-0.1527,-0.1526,-0.1519,-0.1525,-0.1524,-0.1524,-0.1519,-0.152,-0.152,0,0,0,0,0,0,-0.1474,-0.1475,-0.1493,-0.1489,-0.1492,-0.151,-0.151,-0.1513,-0.1517,-0.1523,-0.1524,-0.1527,-0.1527,-0.1527,-0.1526,-0.1518,-0.1524,-0.1524,-0.1519,-0.1519,-0.152,-0.1504,0,0,0,0,0,0,-0.1473,-0.1474,-0.1471,-0.1488,-0.1492,-0.15,-0.151,-0.1513,-0.152,-0.1522,-0.1525,-0.1525,-0.1527,-0.1526,-0.1525,-0.1518,-0.1523,-0.1519,-0.1519,-0.152,-0.1505,-0.1504,-0.1503,0,0,0,0,0,-0.1472,-0.1466,-0.147,-0.1472,-0.1487,-0.1499,-0.1502,-0.1515,-0.152,-0.152,-0.1526,-0.1525,-0.1527,-0.1526,-0.1525,-0.1517,-0.1519,-0.1519,-0.152,-0.1505,-0.1504,-0.1503,0,0,0,0,0,0,-0.1457,-0.1467,-0.1473,-0.1471,-0.1483,-0.1502,-0.1503,-0.1514,-0.1519,-0.1519,-0.1524,-0.1524,-0.1521,-0.1523,-0.1522,-0.1518,-0.1523,-0.1523,-0.1512,-0.1511,-0.1511,-0.1509,-0.1523,0,0,0,0,0,-0.1452,-0.1447,-0.1464,-0.1462,-0.1467,-0.1484,-0.149,-0.1501,-0.151,-0.1513,-0.1515,-0.1519,-0.1521,-0.152,-0.1521,-0.1516,-0.1517,-0.1512,-0.1511,-0.151,-0.1509,-0.1492,-0.1489,-0.152,-0.152,-0.152,0,0,-0.1444,-0.1451,-0.1448,-0.1459,-0.1468,-0.147,-0.1488,-0.1496,-0.1499,-0.151,-0.1508,-0.1514,-0.152,-0.1518,-0.1516,-0.1518,-0.1507,-0.1511,-0.151,-0.1509,-0.1492,-0.1489,-0.1486,-0.152,-0.152,-0.152,0,0,-0.1428,-0.1434,-0.1424,-0.1434,-0.1448,-0.1459,-0.146,-0.1477,-0.1484,-0.1487,-0.1498,-0.1501,-0.1501,-0.1506,-0.1508,-0.1504,-0.1504,-0.1505,-0.1496,-0.148,-0.1477,-0.1474,-0.149,-0.1489,-0.1503,-0.1503,-0.1503,0,-0.1419,-0.141,-0.1424,-0.1422,-0.1427,-0.1451,-0.1446,-0.1459,-0.1473,-0.148,-0.1482,-0.1492,-0.1494,-0.1497,-0.1498,-0.15,-0.1502,-0.1498,-0.1478,-0.1475,-0.1472,-0.1489,-0.1488,-0.1503,-0.1503,-0.1503,-0.1503,0,-0.1396,-0.1393,-0.1389,-0.139,-0.1398,-0.14,-0.142,-0.1426,-0.1437,-0.1453,-0.146,-0.1468,-0.1474,-0.1477,-0.1486,-0.1475,-0.1488,-0.1478,-0.1477,-0.1468,-0.1487,-0.1486,-0.1502,-0.1502,-0.1502,-0.1502,0,0,-0.1357,-0.137,-0.1362,-0.1365,-0.1382,-0.1385,-0.1391,-0.1405,-0.141,-0.1426,-0.1429,-0.144,-0.1453,-0.1457,-0.1468,-0.1459,-0.145,-0.1461,-0.1461,-0.1473,-0.1436,-0.1528,-0.1536,-0.1431,-0.143,-0.143,-0.1463,0,-0.133,-0.1313,-0.1329,-0.1319,-0.1316,-0.1346,-0.135,-0.1371,-0.1388,-0.1398,-0.142,-0.1425,-0.1444,-0.1444,-0.144,-0.1443,-0.1444,-0.1444,-0.1446,-0.1447,-0.1526,-0.1536,-0.164,-0.1685,-0.1462,-0.1462,-0.1462,0,-0.1284,-0.1289,-0.1268,-0.1288,-0.1289,-0.1289,-0.1302,-0.1313,-0.1345,-0.136,-0.1378,-0.1399,-0.1408,-0.1412,-0.1421,-0.1419,-0.1428,-0.1433,-0.1433,-0.1522,-0.1537,-0.1655,-0.1692,-0.1743,-0.146,-0.146,-0.146,0,-0.1222,-0.1236,-0.1217,-0.1224,-0.1253,-0.1254,-0.1267,-0.1297,-0.1307,-0.1334,-0.1341,-0.1364,-0.1372,-0.1375,-0.1415,-0.1404,-0.1428,-0.1408,-0.1507,-0.1514,-0.1607,-0.1624,-0.169,-0.1406,-0.1406,-0.1406,-0.1406,0,-0.1168,-0.1153,-0.1191,-0.1179,-0.1183,-0.1214,-0.121,-0.1236,-0.126,-0.1275,-0.1316,-0.1336,-0.1358,-0.139,-0.1409,-0.1479,-0.1425,-0.1516,-0.1527,-0.1609,-0.1625,-0.1677,-0.1712,-0.1407,-0.1407,-0.1407,-0.1407,0,-0.1092,-0.1104,-0.1107,-0.1142,-0.1148,-0.1153,-0.1177,-0.1177,-0.121,-0.1227,-0.1233,-0.1303,-0.1365,-0.1413,-0.1439,-0.1485,-0.1563,-0.1561,-0.1683,-0.1708,-0.1851,-0.1882,-0.1854,-0.1833,-0.1668,-0.167,-0.1673,0,-0.1045,-0.1031,-0.1076,-0.1078,-0.1093,-0.1103,-0.1103,-0.1141,-0.1145,-0.1217,-0.1221,-0.1305,-0.1395,-0.1509,-0.1629,-0.172,-0.1661,-0.182,-0.1815,-0.189,-0.193,-0.1817,-0.179,-0.1935,-0.1939,-0.1942,-0.1945,0,-0.0982,-0.1001,-0.1019,-0.1026,-0.103,-0.1041,-0.1048,-0.1046,-0.1098,-0.1157,-0.1254,-0.1343,-0.1527,-0.1742,-0.1881,-0.1905,-0.186,-0.1892,-0.1923,-0.2122,-0.2046,-0.2022,-0.1895,-0.1975,-0.1972,-0.197,-0.1968,-0.1967,-0.095,-0.0952,-0.0972,-0.0982,-0.0992,-0.0989,-0.1001,-0.1044,-0.1102,-0.1271,-0.1321,-0.1622,-0.1847,-0.2112,-0.2101,-0.2259,-0.211,-0.2255,-0.228,-0.2147,-0.2152,-0.2115,-0.2233,-0.2232,-0.2231,-0.223,-0.2229,0,-0.0902,-0.0903,-0.0913,-0.0933,-0.0937,-0.0951,-0.0975,-0.1037,-0.115,-0.1438,-0.1623,-0.2161,-0.2359,-0.2514,-0.2728,-0.2686,-0.2519,-0.261,-0.2481,-0.2426,-0.2385,-0.2426,-0.2649,-0.2649,-0.2649,-0.2649,-0.2649,-0.2649,-0.0874,-0.086,-0.0869,-0.0874,-0.0888,-0.0919,-0.0944,-0.1094,-0.1332,-0.1859,-0.2359,-0.2729,-0.2986,-0.3183,-0.3137,-0.2987,-0.2833,-0.2791,-0.2677,-0.2716,-0.2682,-0.265,-0.2694,-0.297,-0.297,-0.2652,-0.2651,-0.2651]},{"header":{"parameterUnit":"m.s-1","parameterCategory":2,"la1":30.2991,"la2":30.254,"lo1":-89.0895,"lo2":-89.0444,"dy":0.0017,"dx":0.0017,"nx":28,"ny":28,"refTime":"2023-11-15T09:00:00:Z","depth":"0","parameterNumber":3,"parameterNumberName":"V-component_of_CURRENTS"},"data":[0,0,0,0,0,0,0,0,0,0,0,0,0,0,0,0,0,0,0,0,0,0,0,0,0,0,0,0,0,0,0,0,0,0,0,0,0,0,0,0,0,0,0,0,0,0,0,0,0,0,0,0,0,0,0,0,0,0,-0.0834,-0.0834,0,-0.0797,-0.0796,-0.0796,-0.0777,-0.0777,-0.0777,-0.0778,-0.0722,-0.072,-0.0719,0,0,0,0,0,0,0,0,0,0,0,0,0,-0.0963,-0.096,-0.0834,-0.0834,-0.0834,-0.0797,-0.0796,-0.0796,-0.0777,-0.0777,-0.0778,-0.0778,-0.0722,-0.072,-0.0718,0,0,0,0,0,0,0,0,0,0,0,0,0,-0.0914,-0.0959,-0.0835,-0.0821,-0.0819,-0.0797,-0.0796,-0.0796,-0.0777,-0.0777,-0.0778,-0.0778,-0.0723,-0.072,-0.0718,-0.0701,0,0,-0.0711,-0.071,0,0,0,0,0,0,0,0,-0.0916,-0.0909,-0.0823,-0.0822,-0.082,-0.0793,-0.0821,-0.0763,-0.0777,-0.0792,-0.0778,-0.0778,-0.0744,-0.074,-0.0732,-0.0699,-0.0696,-0.0711,-0.0709,-0.0708,-0.0708,0,0,0,0,0,0,0,-0.092,-0.0911,-0.0819,-0.0823,-0.0821,-0.0841,-0.0834,-0.0811,-0.0767,-0.0791,-0.079,-0.0787,-0.0743,-0.0734,-0.073,-0.0696,-0.0711,-0.0709,-0.0707,-0.0706,-0.0683,-0.0683,0,0,0,0,0,0,-0.0921,-0.0913,-0.082,-0.0818,-0.087,-0.0839,-0.083,-0.0801,-0.0768,-0.0763,-0.0787,-0.0786,-0.0738,-0.0733,-0.0728,-0.0733,-0.0708,-0.0706,-0.0705,-0.0682,-0.0683,-0.0684,0,0,0,0,0,0,-0.0924,-0.0912,-0.0821,-0.0867,-0.0857,-0.0836,-0.0803,-0.08,-0.0792,-0.0765,-0.076,-0.0783,-0.0738,-0.0732,-0.0726,-0.0729,-0.0705,-0.0703,-0.0681,-0.0682,-0.0683,-0.0725,0,0,0,0,0,0,-0.0927,-0.0913,-0.0899,-0.0866,-0.0855,-0.081,-0.0803,-0.0799,-0.079,-0.0789,-0.076,-0.0755,-0.0738,-0.073,-0.0723,-0.0726,-0.0701,-0.068,-0.0681,-0.0683,-0.0722,-0.0727,-0.0731,0,0,0,0,0,-0.0931,-0.0913,-0.0898,-0.0887,-0.0833,-0.081,-0.0806,-0.0792,-0.079,-0.0786,-0.078,-0.0756,-0.0734,-0.0728,-0.0721,-0.0723,-0.0679,-0.0681,-0.0683,-0.072,-0.0726,-0.0731,0,0,0,0,0,0,-0.0976,-0.0908,-0.0891,-0.0856,-0.0835,-0.0807,-0.0803,-0.0794,-0.0784,-0.0786,-0.0764,-0.0758,-0.0755,-0.0736,-0.073,-0.0722,-0.0703,-0.0703,-0.0734,-0.0739,-0.0744,-0.0744,-0.0699,0,0,0,0,0,-0.0974,-0.0935,-0.089,-0.0868,-0.0852,-0.0828,-0.082,-0.0808,-0.0794,-0.0789,-0.077,-0.0758,-0.0755,-0.0746,-0.0733,-0.0725,-0.0705,-0.0723,-0.0727,-0.0731,-0.0728,-0.0702,-0.0703,-0.0689,-0.0689,-0.0689,0,0,-0.099,-0.0948,-0.0928,-0.0874,-0.0855,-0.0834,-0.0823,-0.0808,-0.0806,-0.0784,-0.0777,-0.0769,-0.0758,-0.0756,-0.0751,-0.074,-0.073,-0.0733,-0.0737,-0.0731,-0.0704,-0.0705,-0.0706,-0.069,-0.069,-0.069,0,0,-0.1,-0.0957,-0.0926,-0.0903,-0.0868,-0.0849,-0.0845,-0.0812,-0.0811,-0.0802,-0.0798,-0.0798,-0.0773,-0.0775,-0.0773,-0.0793,-0.0756,-0.0786,-0.0803,-0.0778,-0.0779,-0.0779,-0.0775,-0.0775,-0.0786,-0.0786,-0.0786,0,-0.1028,-0.0969,-0.0924,-0.0895,-0.0884,-0.0855,-0.084,-0.0833,-0.081,-0.0817,-0.0804,-0.0795,-0.0785,-0.0798,-0.081,-0.0801,-0.0784,-0.0784,-0.0783,-0.0783,-0.0782,-0.0778,-0.0777,-0.0788,-0.0788,-0.0788,-0.0787,0,-0.1015,-0.0971,-0.0958,-0.09,-0.0887,-0.087,-0.0849,-0.0842,-0.0834,-0.0832,-0.0839,-0.0828,-0.0822,-0.0824,-0.0822,-0.0823,-0.0813,-0.0793,-0.0767,-0.0786,-0.0781,-0.0779,-0.0791,-0.079,-0.079,-0.0789,0,0,-0.104,-0.0964,-0.0953,-0.093,-0.0887,-0.0873,-0.0872,-0.0864,-0.0874,-0.0857,-0.0869,-0.0871,-0.0864,-0.0862,-0.0857,-0.0841,-0.0835,-0.0816,-0.0814,-0.081,-0.079,-0.08,-0.0799,-0.0806,-0.0806,-0.0805,-0.0795,0,-0.1038,-0.1,-0.0958,-0.0925,-0.09,-0.0879,-0.0884,-0.0884,-0.0883,-0.0888,-0.0889,-0.0894,-0.088,-0.088,-0.0863,-0.0838,-0.0828,-0.084,-0.0775,-0.0773,-0.0777,-0.0796,-0.0818,-0.0811,-0.0793,-0.0792,-0.0792,0,-0.0988,-0.099,-0.0977,-0.0929,-0.0919,-0.0908,-0.0909,-0.0909,-0.0921,-0.0923,-0.0924,-0.0922,-0.0915,-0.0891,-0.085,-0.0855,-0.0827,-0.0805,-0.0803,-0.0793,-0.0779,-0.0786,-0.0807,-0.0746,-0.0788,-0.0789,-0.0789,0,-0.099,-0.0952,-0.0958,-0.095,-0.0936,-0.0934,-0.0915,-0.0926,-0.0934,-0.0943,-0.0945,-0.0938,-0.0929,-0.0885,-0.0847,-0.0841,-0.0795,-0.0779,-0.0768,-0.077,-0.0765,-0.0767,-0.0715,-0.0747,-0.0747,-0.0747,-0.0747,0,-0.0952,-0.0928,-0.0965,-0.0971,-0.0995,-0.0956,-0.0965,-0.0957,-0.0953,-0.0968,-0.0961,-0.0973,-0.0921,-0.0896,-0.0853,-0.0809,-0.0796,-0.0776,-0.0764,-0.0784,-0.0787,-0.0715,-0.0686,-0.0747,-0.0747,-0.0747,-0.0747,0,-0.0917,-0.0916,-0.095,-0.0995,-0.0986,-0.1017,-0.0976,-0.098,-0.0972,-0.0984,-0.0985,-0.0989,-0.0963,-0.0916,-0.0858,-0.0822,-0.0754,-0.0763,-0.0804,-0.0797,-0.0733,-0.0707,-0.0604,-0.0649,-0.0751,-0.0751,-0.0752,0,-0.0883,-0.0901,-0.1016,-0.1041,-0.1055,-0.1063,-0.105,-0.1007,-0.1001,-0.1002,-0.1009,-0.1003,-0.1021,-0.095,-0.0885,-0.0819,-0.0765,-0.0789,-0.0782,-0.0736,-0.0697,-0.0635,-0.0678,-0.0802,-0.0803,-0.0803,-0.0803,0,-0.0879,-0.0952,-0.1034,-0.111,-0.1113,-0.113,-0.1091,-0.1085,-0.1045,-0.1069,-0.1108,-0.1128,-0.1065,-0.1046,-0.0941,-0.0875,-0.0764,-0.0796,-0.0727,-0.0718,-0.0667,-0.0703,-0.0814,-0.0807,-0.0807,-0.0807,-0.0806,-0.0806,-0.0929,-0.0997,-0.1109,-0.1171,-0.119,-0.1196,-0.1212,-0.1191,-0.1211,-0.1298,-0.1248,-0.1363,-0.1182,-0.1065,-0.0954,-0.0784,-0.0795,-0.075,-0.072,-0.066,-0.0702,-0.0836,-0.0825,-0.0824,-0.0824,-0.0824,-0.0824,0,-0.0959,-0.1009,-0.1107,-0.1207,-0.125,-0.1227,-0.1245,-0.1314,-0.139,-0.1481,-0.1573,-0.1527,-0.1363,-0.1148,-0.0855,-0.0728,-0.069,-0.0665,-0.0582,-0.0635,-0.0732,-0.0735,-0.073,-0.073,-0.073,-0.073,-0.073,-0.073,-0.0981,-0.1044,-0.1106,-0.1223,-0.1271,-0.1337,-0.1365,-0.1527,-0.1644,-0.1876,-0.1963,-0.2,-0.155,-0.087,-0.0566,-0.0537,-0.0513,-0.048,-0.0492,-0.0537,-0.0542,-0.0547,-0.0542,-0.0497,-0.0496,-0.0421,-0.042,-0.042]}],[{"header":{"parameterUnit":"m.s-1","parameterCategory":2,"la1":30.2991,"la2":30.254,"lo1":-89.0895,"lo2":-89.0444,"dy":0.0017,"dx":0.0017,"nx":28,"ny":28,"refTime":"2023-11-15T09:00:00:Z","depth":"2","parameterNumber":2,"parameterNumberName":"U-component_of_CURRENTS"},"data":[0,0,0,0,0,0,0,0,0,0,0,0,0,0,0,0,0,0,0,0,0,0,0,0,0,0,0,0,0,0,0,0,0,0,0,0,0,0,0,0,0,0,0,0,0,0,0,0,0,0,0,0,0,0,0,0,0,0,-0.1458,-0.1458,0,-0.1486,-0.1486,-0.1487,-0.1502,-0.1503,-0.1503,-0.1503,-0.15,-0.15,-0.15,0,0,0,0,0,0,0,0,0,0,0,0,0,-0.1438,-0.1438,-0.1458,-0.1458,-0.1459,-0.1486,-0.1486,-0.1487,-0.1502,-0.1503,-0.1503,-0.1503,-0.15,-0.15,-0.15,0,0,0,0,0,0,0,0,0,0,0,0,0,-0.1454,-0.1438,-0.1458,-0.147,-0.1472,-0.1486,-0.1486,-0.1487,-0.1502,-0.1503,-0.1503,-0.1503,-0.15,-0.15,-0.15,-0.1494,0,0,-0.1499,-0.1499,0,0,0,0,0,0,0,0,-0.1453,-0.1454,-0.1468,-0.1469,-0.1471,-0.1492,-0.1478,-0.1488,-0.1502,-0.149,-0.1503,-0.1503,-0.1495,-0.1495,-0.1499,-0.1494,-0.1494,-0.1499,-0.1499,-0.1498,-0.1498,0,0,0,0,0,0,0,-0.1451,-0.1453,-0.1468,-0.1469,-0.147,-0.1482,-0.1484,-0.148,-0.149,-0.1491,-0.1492,-0.1497,-0.1495,-0.1499,-0.1499,-0.1494,-0.1499,-0.1498,-0.1498,-0.1498,-0.1496,-0.1496,0,0,0,0,0,0,-0.1448,-0.1452,-0.1467,-0.1469,-0.1463,-0.1482,-0.1484,-0.1484,-0.1491,-0.1492,-0.1497,-0.1497,-0.15,-0.1499,-0.1499,-0.1492,-0.1498,-0.1498,-0.1498,-0.1496,-0.1496,-0.1496,0,0,0,0,0,0,-0.1448,-0.1449,-0.1466,-0.1462,-0.1465,-0.1482,-0.1482,-0.1485,-0.1489,-0.1495,-0.1496,-0.1498,-0.15,-0.1499,-0.1498,-0.1492,-0.1498,-0.1498,-0.1496,-0.1496,-0.1496,-0.1479,0,0,0,0,0,0,-0.1447,-0.1449,-0.1446,-0.1462,-0.1465,-0.1472,-0.1482,-0.1485,-0.1492,-0.1493,-0.1497,-0.1497,-0.15,-0.1499,-0.1498,-0.1492,-0.1498,-0.1496,-0.1496,-0.1496,-0.1479,-0.1479,-0.1478,0,0,0,0,0,-0.1446,-0.1441,-0.1445,-0.1447,-0.1461,-0.1472,-0.1475,-0.1487,-0.1492,-0.1492,-0.1497,-0.1497,-0.15,-0.1498,-0.1498,-0.1491,-0.1495,-0.1496,-0.1496,-0.148,-0.1479,-0.1478,0,0,0,0,0,0,-0.1433,-0.1443,-0.1448,-0.1447,-0.1458,-0.1475,-0.1476,-0.1485,-0.149,-0.1491,-0.1496,-0.1496,-0.1493,-0.1497,-0.1495,-0.1493,-0.1498,-0.1498,-0.1486,-0.1485,-0.1484,-0.1483,-0.1497,0,0,0,0,0,-0.1428,-0.1425,-0.144,-0.1439,-0.1443,-0.1459,-0.1464,-0.1475,-0.1483,-0.1486,-0.1488,-0.1492,-0.1494,-0.1493,-0.1495,-0.149,-0.1492,-0.1488,-0.1487,-0.1486,-0.1486,-0.147,-0.1468,-0.1497,-0.1497,-0.1497,0,0,-0.1422,-0.1428,-0.1425,-0.1436,-0.1444,-0.1445,-0.1462,-0.147,-0.1472,-0.1483,-0.148,-0.1486,-0.1493,-0.1491,-0.149,-0.1492,-0.1484,-0.1486,-0.1486,-0.1486,-0.147,-0.1467,-0.1464,-0.1497,-0.1497,-0.1497,0,0,-0.1406,-0.1413,-0.1404,-0.1413,-0.1427,-0.1436,-0.1437,-0.1452,-0.1459,-0.146,-0.147,-0.1475,-0.1474,-0.148,-0.1483,-0.1478,-0.148,-0.148,-0.1472,-0.1457,-0.1454,-0.1452,-0.1468,-0.1467,-0.1479,-0.1479,-0.1479,0,-0.1399,-0.139,-0.1404,-0.1402,-0.1406,-0.1429,-0.1423,-0.1434,-0.1447,-0.1453,-0.1456,-0.1465,-0.1469,-0.1472,-0.1473,-0.1475,-0.1476,-0.1473,-0.1455,-0.1452,-0.145,-0.1467,-0.1466,-0.1478,-0.1478,-0.1478,-0.1478,0,-0.1377,-0.1374,-0.1371,-0.1371,-0.1378,-0.1379,-0.1397,-0.1402,-0.1412,-0.1426,-0.1433,-0.1443,-0.1449,-0.1453,-0.1461,-0.1452,-0.1463,-0.1454,-0.1454,-0.1445,-0.1464,-0.1464,-0.1477,-0.1477,-0.1478,-0.1478,0,0,-0.134,-0.1352,-0.1345,-0.1346,-0.1362,-0.1364,-0.1369,-0.1379,-0.1383,-0.1399,-0.1401,-0.1414,-0.1428,-0.1432,-0.1444,-0.1437,-0.1429,-0.1438,-0.1438,-0.145,-0.1415,-0.1507,-0.1516,-0.1409,-0.1408,-0.1408,-0.1441,0,-0.1314,-0.1297,-0.1312,-0.13,-0.1296,-0.1324,-0.1326,-0.1344,-0.136,-0.1369,-0.1393,-0.1398,-0.1418,-0.1419,-0.1416,-0.1422,-0.1423,-0.1422,-0.1426,-0.1427,-0.1505,-0.1516,-0.1329,-0.135,-0.144,-0.144,-0.144,0,-0.1269,-0.1273,-0.1251,-0.1268,-0.1268,-0.1267,-0.1275,-0.1285,-0.1315,-0.1329,-0.1349,-0.137,-0.1382,-0.1388,-0.1399,-0.1396,-0.1406,-0.1412,-0.1413,-0.1504,-0.1518,-0.137,-0.1345,-0.1439,-0.1439,-0.1439,-0.1439,0,-0.1206,-0.1219,-0.1199,-0.1205,-0.1231,-0.1231,-0.1241,-0.1268,-0.1276,-0.1303,-0.131,-0.1336,-0.1346,-0.1352,-0.1394,-0.1382,-0.1411,-0.1391,-0.1489,-0.1497,-0.1342,-0.1339,-0.139,-0.139,-0.139,-0.139,-0.139,0,-0.1152,-0.1136,-0.1173,-0.116,-0.1161,-0.119,-0.1183,-0.1206,-0.123,-0.1244,-0.1285,-0.1307,-0.1332,-0.1367,-0.1387,-0.146,-0.1407,-0.1499,-0.151,-0.1338,-0.1333,-0.1409,-0.1411,-0.1391,-0.1391,-0.1391,-0.139,0,-0.1075,-0.1086,-0.1087,-0.112,-0.1126,-0.1129,-0.1149,-0.1148,-0.118,-0.1196,-0.1204,-0.1274,-0.1339,-0.139,-0.142,-0.1467,-0.151,-0.1546,-0.1375,-0.1368,-0.1605,-0.1605,-0.1646,-0.165,-0.1653,-0.1655,-0.1657,0,-0.1027,-0.1013,-0.1056,-0.1057,-0.107,-0.1079,-0.1077,-0.1113,-0.1116,-0.1187,-0.1192,-0.1278,-0.1364,-0.1483,-0.1501,-0.1568,-0.1602,-0.1503,-0.1458,-0.1625,-0.163,-0.1626,-0.1623,-0.1235,-0.1233,-0.1232,-0.1231,0,-0.0963,-0.0982,-0.1,-0.1006,-0.1007,-0.1016,-0.1021,-0.1019,-0.1069,-0.1125,-0.1221,-0.1306,-0.1396,-0.1426,-0.1535,-0.1531,-0.148,-0.149,-0.1652,-0.1241,-0.1251,-0.1253,-0.1259,-0.122,-0.1221,-0.1222,-0.1222,-0.1223,-0.0931,-0.0934,-0.0954,-0.0962,-0.0969,-0.0963,-0.0973,-0.0986,-0.1036,-0.1121,-0.122,-0.1353,-0.1352,-0.1477,-0.1432,-0.1387,-0.1484,-0.1445,-0.144,-0.1439,-0.1428,-0.1447,-0.1451,-0.1453,-0.1455,-0.1457,-0.1458,0,-0.0878,-0.0884,-0.0895,-0.0912,-0.0905,-0.0925,-0.0947,-0.0928,-0.0994,-0.1116,-0.1239,-0.122,-0.1302,-0.1317,-0.1215,-0.1233,-0.1103,-0.1215,-0.1022,-0.1035,-0.1046,-0.1006,-0.0921,-0.092,-0.0919,-0.0918,0,0,-0.0849,-0.0827,-0.0837,-0.0834,-0.0854,-0.0861,-0.0883,-0.0854,-0.0916,-0.0983,-0.1119,-0.1331,-0.1352,-0.1189,-0.1094,-0.1012,-0.1009,-0.0955,-0.1378,-0.1164,-0.1174,-0.1167,-0.1123,0,0,0,0,0]},{"header":{"parameterUnit":"m.s-1","parameterCategory":2,"la1":30.2991,"la2":30.254,"lo1":-89.0895,"lo2":-89.0444,"dy":0.0017,"dx":0.0017,"nx":28,"ny":28,"refTime":"2023-11-15T09:00:00:Z","depth":"2","parameterNumber":3,"parameterNumberName":"V-component_of_CURRENTS"},"data":[0,0,0,0,0,0,0,0,0,0,0,0,0,0,0,0,0,0,0,0,0,0,0,0,0,0,0,0,0,0,0,0,0,0,0,0,0,0,0,0,0,0,0,0,0,0,0,0,0,0,0,0,0,0,0,0,0,0,-0.0773,-0.0772,0,-0.073,-0.0729,-0.0729,-0.071,-0.071,-0.071,-0.071,-0.066,-0.0659,-0.0657,0,0,0,0,0,0,0,0,0,0,0,0,0,-0.0899,-0.0896,-0.0773,-0.0772,-0.0772,-0.073,-0.0729,-0.0728,-0.071,-0.071,-0.071,-0.071,-0.0661,-0.0659,-0.0657,0,0,0,0,0,0,0,0,0,0,0,0,0,-0.0848,-0.0895,-0.0773,-0.0758,-0.0756,-0.073,-0.0729,-0.0728,-0.071,-0.071,-0.071,-0.071,-0.0661,-0.0659,-0.0657,-0.064,0,0,-0.065,-0.0649,0,0,0,0,0,0,0,0,-0.0851,-0.0843,-0.076,-0.0759,-0.0757,-0.0726,-0.0755,-0.0699,-0.0709,-0.0726,-0.071,-0.071,-0.0682,-0.0678,-0.0669,-0.0637,-0.0635,-0.065,-0.0649,-0.0648,-0.0647,0,0,0,0,0,0,0,-0.0854,-0.0845,-0.0755,-0.076,-0.0758,-0.0774,-0.0766,-0.0745,-0.0703,-0.0725,-0.0724,-0.072,-0.0681,-0.0671,-0.0667,-0.0635,-0.065,-0.0648,-0.0647,-0.0646,-0.0628,-0.0629,0,0,0,0,0,0,-0.0857,-0.0848,-0.0756,-0.0754,-0.0806,-0.0772,-0.0763,-0.0735,-0.0703,-0.0699,-0.072,-0.0719,-0.0674,-0.067,-0.0665,-0.0672,-0.0648,-0.0646,-0.0645,-0.0628,-0.0629,-0.063,0,0,0,0,0,0,-0.086,-0.0848,-0.0758,-0.0803,-0.0792,-0.0769,-0.0738,-0.0734,-0.0726,-0.07,-0.0695,-0.0717,-0.0674,-0.0668,-0.0662,-0.0669,-0.0645,-0.0643,-0.0627,-0.0628,-0.0629,-0.0666,0,0,0,0,0,0,-0.0863,-0.0849,-0.0837,-0.0801,-0.079,-0.0745,-0.0738,-0.0733,-0.0724,-0.0723,-0.0695,-0.0691,-0.0674,-0.0666,-0.066,-0.0665,-0.0641,-0.0626,-0.0627,-0.0629,-0.0664,-0.0668,-0.0672,0,0,0,0,0,-0.0867,-0.0852,-0.0836,-0.0826,-0.0771,-0.0745,-0.0741,-0.0726,-0.0724,-0.072,-0.0713,-0.0692,-0.0672,-0.0665,-0.0658,-0.0662,-0.0625,-0.0627,-0.0629,-0.0662,-0.0667,-0.0672,0,0,0,0,0,0,-0.0915,-0.0847,-0.083,-0.0797,-0.0774,-0.0742,-0.074,-0.0728,-0.0717,-0.0721,-0.0698,-0.0693,-0.069,-0.0674,-0.0667,-0.0664,-0.0646,-0.0647,-0.0674,-0.0679,-0.0683,-0.0685,-0.0639,0,0,0,0,0,-0.0915,-0.0878,-0.0831,-0.0811,-0.0795,-0.0767,-0.0758,-0.0746,-0.0729,-0.0725,-0.0705,-0.0694,-0.0691,-0.0684,-0.0672,-0.0666,-0.0649,-0.0667,-0.0672,-0.0675,-0.0674,-0.0651,-0.0653,-0.0636,-0.0636,-0.0636,0,0,-0.0932,-0.0891,-0.0872,-0.0818,-0.0797,-0.0775,-0.0762,-0.0747,-0.0742,-0.0721,-0.0711,-0.0704,-0.0694,-0.0693,-0.069,-0.068,-0.0676,-0.0678,-0.0681,-0.0678,-0.0653,-0.0655,-0.0656,-0.0637,-0.0637,-0.0636,0,0,-0.0945,-0.0904,-0.0875,-0.0851,-0.0815,-0.0793,-0.0789,-0.0753,-0.075,-0.0739,-0.0734,-0.0736,-0.0711,-0.0715,-0.0713,-0.0734,-0.0699,-0.0728,-0.0747,-0.0725,-0.0726,-0.0726,-0.0723,-0.0722,-0.0729,-0.0729,-0.0729,0,-0.0976,-0.0918,-0.0873,-0.0845,-0.0831,-0.08,-0.0783,-0.0774,-0.0747,-0.0752,-0.0741,-0.0732,-0.0724,-0.0739,-0.0751,-0.0743,-0.0725,-0.0727,-0.0729,-0.0729,-0.0729,-0.0725,-0.0724,-0.0731,-0.0731,-0.0731,-0.073,0,-0.0966,-0.0922,-0.091,-0.0852,-0.0836,-0.0819,-0.0793,-0.0783,-0.0773,-0.0768,-0.0775,-0.0767,-0.0762,-0.0766,-0.0764,-0.0768,-0.0756,-0.0737,-0.0713,-0.0733,-0.0728,-0.0726,-0.0734,-0.0733,-0.0733,-0.0732,0,0,-0.0996,-0.0919,-0.0908,-0.0882,-0.0836,-0.082,-0.0816,-0.0801,-0.0807,-0.0792,-0.0801,-0.0807,-0.0802,-0.0802,-0.08,-0.0788,-0.0784,-0.0763,-0.0761,-0.0755,-0.0742,-0.0752,-0.0752,-0.0755,-0.0754,-0.0754,-0.0745,0,-0.0996,-0.0958,-0.0913,-0.0877,-0.0849,-0.0823,-0.0823,-0.0817,-0.0813,-0.0815,-0.0823,-0.0828,-0.0817,-0.082,-0.0807,-0.0787,-0.0779,-0.0789,-0.0727,-0.0726,-0.0729,-0.075,-0.0474,-0.0443,-0.0743,-0.0743,-0.0742,0,-0.0947,-0.0948,-0.0933,-0.0876,-0.0864,-0.085,-0.0841,-0.0836,-0.0844,-0.0845,-0.085,-0.085,-0.0853,-0.0831,-0.08,-0.0802,-0.0776,-0.0758,-0.0756,-0.0749,-0.0733,-0.047,-0.0429,-0.0739,-0.074,-0.074,-0.074,0,-0.0948,-0.0907,-0.091,-0.0901,-0.0879,-0.0873,-0.0849,-0.0851,-0.0856,-0.0865,-0.0867,-0.0867,-0.0865,-0.0826,-0.0797,-0.079,-0.0755,-0.0738,-0.0728,-0.0728,-0.0475,-0.0455,-0.0709,-0.071,-0.071,-0.071,-0.071,0,-0.0908,-0.088,-0.0917,-0.0921,-0.0937,-0.0895,-0.0896,-0.0882,-0.0875,-0.0888,-0.0882,-0.0896,-0.0857,-0.0839,-0.0802,-0.0765,-0.0754,-0.0737,-0.0725,-0.0485,-0.0467,-0.0703,-0.0703,-0.0709,-0.0709,-0.0709,-0.0709,0,-0.0871,-0.0868,-0.0898,-0.0939,-0.0928,-0.0953,-0.0906,-0.0905,-0.0894,-0.0906,-0.0908,-0.0911,-0.0896,-0.0859,-0.0812,-0.0778,-0.0739,-0.0727,-0.0469,-0.0429,-0.0728,-0.073,-0.0716,-0.0717,-0.0717,-0.0717,-0.0717,0,-0.0834,-0.0851,-0.0963,-0.0984,-0.0996,-0.1,-0.0981,-0.0933,-0.0926,-0.0923,-0.0931,-0.093,-0.093,-0.0873,-0.067,-0.0574,-0.0757,-0.0446,-0.0399,-0.0738,-0.0728,-0.0729,-0.073,-0.007,-0.0065,-0.006,-0.0057,0,-0.0828,-0.0901,-0.0985,-0.1056,-0.1053,-0.1062,-0.1019,-0.1012,-0.0969,-0.0982,-0.1013,-0.1012,-0.0815,-0.058,-0.0444,-0.038,-0.0437,-0.0368,-0.0733,-0.0148,-0.0137,-0.0126,-0.0145,-0.0019,-0.0023,-0.0026,-0.0028,-0.0029,-0.0879,-0.0948,-0.1063,-0.1119,-0.113,-0.1126,-0.1135,-0.1031,-0.1028,-0.0963,-0.0981,-0.0901,-0.0623,-0.0296,-0.0147,-0.0035,-0.0116,-0.0156,-0.0164,-0.0177,-0.0141,-0.0135,-0.001,-0.0013,-0.0016,-0.0019,-0.0022,0,-0.0896,-0.096,-0.1061,-0.1151,-0.1164,-0.1154,-0.1167,-0.1074,-0.1021,-0.0934,-0.086,-0.057,-0.0249,-0.0127,0.027,0.0389,0.0465,0.0222,0.0358,0.0326,0.0296,0.0357,0.0619,0.0619,0.0619,0.0619,0,0,-0.0914,-0.0955,-0.1019,-0.1111,-0.1178,-0.1183,-0.1204,-0.0999,-0.0902,-0.0787,-0.0727,-0.0436,-0.0241,0.0093,0.0367,0.0481,0.0314,0.0467,-0.0015,0.01,0.0065,0.0158,0.0225,0,0,0,0,0]}],[{"header":{"parameterUnit":"m.s-1","parameterCategory":2,"la1":30.2991,"la2":30.254,"lo1":-89.0895,"lo2":-89.0444,"dy":0.0017,"dx":0.0017,"nx":28,"ny":28,"refTime":"2023-11-15T09:00:00:Z","depth":"4","parameterNumber":2,"parameterNumberName":"U-component_of_CURRENTS"},"data":[0,0,0,0,0,0,0,0,0,0,0,0,0,0,0,0,0,0,0,0,0,0,0,0,0,0,0,0,0,0,0,0,0,0,0,0,0,0,0,0,0,0,0,0,0,0,0,0,0,0,0,0,0,0,0,0,0,0,-0.0628,-0.0629,0,-0.0633,-0.0633,-0.0633,-0.0645,-0.0645,-0.0646,-0.0646,-0.0701,-0.0702,-0.0703,0,0,0,0,0,0,0,0,0,0,0,0,0,-0.0562,-0.0563,-0.0628,-0.0629,-0.0629,-0.0633,-0.0633,-0.0633,-0.0645,-0.0645,-0.0646,-0.0647,-0.07,-0.0701,-0.0703,0,0,0,0,0,0,0,0,0,0,0,0,0,-0.0579,-0.0564,-0.0628,-0.0637,-0.0639,-0.0634,-0.0633,-0.0633,-0.0645,-0.0645,-0.0646,-0.0647,-0.07,-0.0701,-0.0703,-0.0697,0,0,-0.0707,-0.0708,0,0,0,0,0,0,0,0,-0.0578,-0.0581,-0.0636,-0.0637,-0.0638,-0.0642,-0.063,-0.0658,-0.0644,-0.0639,-0.0646,-0.0647,-0.0687,-0.0689,-0.0684,-0.0699,-0.0701,-0.0707,-0.0708,-0.0709,-0.0709,0,0,0,0,0,0,0,-0.0577,-0.058,-0.0627,-0.0636,-0.0638,-0.0619,-0.0622,-0.0634,-0.0657,-0.064,-0.0641,-0.0646,-0.0688,-0.0682,-0.0685,-0.0702,-0.0707,-0.0709,-0.071,-0.071,-0.0732,-0.0731,0,0,0,0,0,0,-0.0585,-0.058,-0.0627,-0.0628,-0.0613,-0.062,-0.0624,-0.0637,-0.0656,-0.066,-0.0646,-0.0647,-0.0679,-0.0684,-0.0688,-0.0703,-0.0709,-0.071,-0.0711,-0.0732,-0.0732,-0.0731,0,0,0,0,0,0,-0.0584,-0.0589,-0.0627,-0.0605,-0.0609,-0.0621,-0.0636,-0.0637,-0.0661,-0.0661,-0.0665,-0.0672,-0.068,-0.0685,-0.0695,-0.0705,-0.0711,-0.0712,-0.0732,-0.0732,-0.0731,-0.0721,0,0,0,0,0,0,-0.0582,-0.0589,-0.0603,-0.0606,-0.0611,-0.064,-0.0636,-0.0637,-0.0663,-0.0665,-0.0685,-0.0688,-0.0681,-0.0692,-0.0696,-0.0707,-0.0713,-0.0733,-0.0732,-0.0732,-0.0722,-0.072,-0.0719,0,0,0,0,0,-0.0579,-0.0593,-0.0604,-0.061,-0.063,-0.0641,-0.0641,-0.0649,-0.0664,-0.0674,-0.0671,-0.0689,-0.0692,-0.0693,-0.0698,-0.0709,-0.0733,-0.0732,-0.0732,-0.0722,-0.072,-0.0719,0,0,0,0,0,0,-0.0567,-0.0596,-0.0608,-0.0629,-0.0644,-0.0644,-0.0655,-0.0667,-0.0673,-0.0682,-0.0683,-0.0686,-0.0698,-0.0704,-0.0705,-0.0712,-0.0717,-0.0718,-0.0709,-0.0707,-0.0706,-0.0726,-0.0715,0,0,0,0,0,-0.0573,-0.0596,-0.0615,-0.0634,-0.0646,-0.0659,-0.0668,-0.0677,-0.0682,-0.0688,-0.0697,-0.07,-0.0694,-0.0702,-0.0701,-0.0709,-0.0722,-0.0719,-0.0718,-0.0717,-0.0735,-0.0733,-0.0734,-0.0729,-0.0729,-0.0729,0,0,-0.0569,-0.0593,-0.0602,-0.0633,-0.0647,-0.0654,-0.0666,-0.069,-0.068,-0.0693,-0.0692,-0.0703,-0.0694,-0.069,-0.0698,-0.0701,-0.0725,-0.0716,-0.0715,-0.0734,-0.0733,-0.0733,-0.0734,-0.0729,-0.0729,-0.0729,0,0,-0.0572,-0.0603,-0.0622,-0.0637,-0.0669,-0.067,-0.0687,-0.0705,-0.0699,-0.0707,-0.0698,-0.0717,-0.0722,-0.0705,-0.0698,-0.0696,-0.0718,-0.07,-0.0712,-0.0709,-0.071,-0.0711,-0.0731,-0.0733,-0.0699,-0.0699,-0.0699,0,-0.0569,-0.0595,-0.0626,-0.0647,-0.0651,-0.0682,-0.0688,-0.0681,-0.0694,-0.0691,-0.0712,-0.0723,-0.0727,-0.0704,-0.07,-0.0696,-0.0704,-0.0717,-0.0708,-0.0709,-0.071,-0.0731,-0.0734,-0.0698,-0.0699,-0.0699,-0.0699,0,-0.0569,-0.0603,-0.0617,-0.0648,-0.0656,-0.0671,-0.0669,-0.0673,-0.069,-0.0696,-0.0707,-0.0711,-0.0724,-0.0723,-0.0714,-0.0715,-0.0722,-0.0706,-0.0714,-0.071,-0.0732,-0.0735,-0.0698,-0.0698,-0.0698,-0.0698,0,0,-0.0539,-0.0602,-0.0607,-0.0627,-0.0658,-0.0661,-0.0645,-0.0641,-0.0637,-0.0672,-0.0675,-0.0682,-0.0723,-0.0718,-0.0714,-0.0721,-0.0737,-0.0723,-0.0723,-0.0748,-0.0749,-0.0705,-0.0705,-0.0714,-0.0715,-0.0715,-0.0763,0,-0.0532,-0.0557,-0.0586,-0.0605,-0.0624,-0.0636,-0.0622,-0.0625,-0.0627,-0.0637,-0.0663,-0.0682,-0.0702,-0.0723,-0.073,-0.0732,-0.0745,-0.0727,-0.0747,-0.0749,-0.0712,-0.0706,-0.0716,-0.0766,-0.0767,-0.0767,-0.0768,0,-0.0539,-0.0545,-0.055,-0.0599,-0.0606,-0.0614,-0.0598,-0.0589,-0.06,-0.0613,-0.0647,-0.0678,-0.0706,-0.0723,-0.0752,-0.0739,-0.0755,-0.0763,-0.0764,-0.0733,-0.071,-0.0769,-0.0774,-0.0773,-0.0773,-0.0773,-0.0772,0,-0.0509,-0.0546,-0.0538,-0.0546,-0.0576,-0.0576,-0.0594,-0.0596,-0.0589,-0.0607,-0.0637,-0.0668,-0.0714,-0.0725,-0.0769,-0.0759,-0.0804,-0.0781,-0.076,-0.0758,-0.079,-0.0789,-0.0805,-0.0805,-0.0805,-0.0805,-0.0804,0,-0.0502,-0.0518,-0.0528,-0.0522,-0.0518,-0.0562,-0.0565,-0.0569,-0.0596,-0.0609,-0.0641,-0.066,-0.0722,-0.0757,-0.0769,-0.0784,-0.0805,-0.0773,-0.0763,-0.0785,-0.0782,-0.0793,-0.0791,-0.0806,-0.0806,-0.0806,-0.0805,0,-0.0482,-0.0504,-0.0494,-0.0496,-0.0515,-0.0503,-0.0565,-0.0556,-0.0599,-0.061,-0.0632,-0.0681,-0.0729,-0.0777,-0.0814,-0.0796,-0.0799,-0.0799,-0.0847,-0.0837,-0.0758,-0.0755,-0.0772,-0.077,-0.0769,-0.0768,-0.0768,0,-0.0461,-0.0455,-0.0441,-0.0441,-0.0448,-0.0467,-0.0484,-0.0539,-0.0529,-0.061,-0.06,-0.069,-0.0721,-0.0742,-0.0785,-0.0811,-0.0804,-0.0802,-0.0761,-0.0764,-0.0753,-0.0752,-0.075,-0.0766,-0.0766,-0.0765,-0.0765,0,-0.0387,-0.0387,-0.0361,-0.0365,-0.0377,-0.0383,-0.0421,-0.0425,-0.0484,-0.0533,-0.0569,-0.0619,-0.0679,-0.0716,-0.0761,-0.0766,-0.079,-0.079,-0.0792,-0.0754,-0.0758,-0.0747,-0.0747,-0.0761,-0.0762,-0.0762,-0.0762,0,-0.0318,-0.0282,-0.0275,-0.0277,-0.0294,-0.0303,-0.0337,-0.0364,-0.0388,-0.0482,-0.0495,-0.059,-0.0668,-0.0693,-0.0713,-0.0737,-0.0724,-0.0686,-0.0693,-0.0698,-0.0651,-0.0644,-0.061,0,0,0,0,0,-0.0233,-0.0225,-0.0212,-0.0217,-0.0233,-0.0258,-0.0288,-0.032,-0.0388,-0.0393,-0.0453,-0.0505,-0.058,-0.0612,-0.0626,-0.0678,-0.072,-0.0687,-0.0678,-0.0741,-0.0745,-0.0697,0,0,0,0,0,0,-0.0187,-0.018,-0.0181,-0.0169,-0.0178,-0.0195,-0.0215,-0.0267,-0.027,-0.0353,-0.0388,-0.0462,-0.0528,-0.0578,-0.0615,-0.0629,-0.0608,-0.0745,-0.0743,-0.0738,-0.0742,-0.0746,-0.0698,0,0,0,0,0]},{"header":{"parameterUnit":"m.s-1","parameterCategory":2,"la1":30.2991,"la2":30.254,"lo1":-89.0895,"lo2":-89.0444,"dy":0.0017,"dx":0.0017,"nx":28,"ny":28,"refTime":"2023-11-15T09:00:00:Z","depth":"4","parameterNumber":3,"parameterNumberName":"V-component_of_CURRENTS"},"data":[0,0,0,0,0,0,0,0,0,0,0,0,0,0,0,0,0,0,0,0,0,0,0,0,0,0,0,0,0,0,0,0,0,0,0,0,0,0,0,0,0,0,0,0,0,0,0,0,0,0,0,0,0,0,0,0,0,0,0.0488,0.0489,0,0.0543,0.0544,0.0545,0.0571,0.0571,0.057,0.057,0.0577,0.0577,0.0578,0,0,0,0,0,0,0,0,0,0,0,0,0,0.0482,0.0482,0.0488,0.0489,0.0489,0.0543,0.0544,0.0545,0.0571,0.0571,0.057,0.057,0.0577,0.0577,0.0578,0,0,0,0,0,0,0,0,0,0,0,0,0,0.0508,0.0482,0.0488,0.0506,0.0508,0.0542,0.0544,0.0545,0.0571,0.0571,0.057,0.057,0.0577,0.0577,0.0578,0.0591,0,0,0.058,0.058,0,0,0,0,0,0,0,0,0.0507,0.0509,0.0503,0.0505,0.0507,0.0547,0.0544,0.0557,0.0571,0.0551,0.057,0.057,0.0561,0.0563,0.0579,0.0592,0.0592,0.058,0.058,0.0581,0.0581,0,0,0,0,0,0,0,0.0505,0.0507,0.0513,0.0504,0.0506,0.0537,0.054,0.0547,0.0559,0.0552,0.0554,0.0555,0.0562,0.0578,0.0579,0.0592,0.058,0.0581,0.0581,0.0581,0.0633,0.0634,0,0,0,0,0,0,0.0488,0.0505,0.0511,0.0514,0.0502,0.0537,0.0541,0.0537,0.056,0.0563,0.0555,0.0556,0.0578,0.0578,0.0579,0.0624,0.0581,0.0581,0.0582,0.0632,0.0633,0.0634,0,0,0,0,0,0,0.0488,0.0488,0.0509,0.0509,0.0513,0.0537,0.0534,0.0538,0.0541,0.0562,0.0564,0.055,0.0577,0.0578,0.0599,0.0623,0.0582,0.0582,0.0631,0.0633,0.0634,0.0694,0,0,0,0,0,0,0.0487,0.0488,0.0487,0.0507,0.0512,0.0519,0.0534,0.054,0.0541,0.0542,0.0558,0.056,0.0577,0.0598,0.06,0.0623,0.0583,0.063,0.0632,0.0634,0.0691,0.0698,0.0703,0,0,0,0,0,0.0487,0.0485,0.0486,0.0487,0.0508,0.0518,0.0524,0.0542,0.0541,0.0542,0.057,0.0558,0.061,0.06,0.0601,0.0625,0.0629,0.0631,0.0633,0.0689,0.0696,0.0703,0,0,0,0,0,0,0.0493,0.0488,0.049,0.0489,0.0496,0.0521,0.0522,0.0531,0.0554,0.0549,0.0573,0.0577,0.0604,0.0601,0.0589,0.0645,0.0616,0.0619,0.0658,0.0665,0.0671,0.0651,0.0583,0,0,0,0,0,0.0489,0.0481,0.0486,0.0487,0.048,0.0496,0.0503,0.051,0.053,0.0538,0.0557,0.058,0.0617,0.0628,0.0647,0.0674,0.0654,0.0689,0.0695,0.07,0.0685,0.0678,0.0682,0.0642,0.0642,0.0642,0,0,0.0496,0.049,0.0488,0.0487,0.0489,0.0495,0.0499,0.0495,0.0532,0.0534,0.058,0.0593,0.0627,0.0672,0.0682,0.0671,0.0707,0.0703,0.0708,0.0689,0.0681,0.0685,0.0688,0.0643,0.0643,0.0643,0,0,0.0492,0.0487,0.0471,0.0471,0.0462,0.0483,0.0474,0.0487,0.052,0.0553,0.0584,0.061,0.0645,0.0695,0.0723,0.0765,0.0736,0.0766,0.0787,0.0783,0.0785,0.0788,0.079,0.0792,0.0774,0.0775,0.0775,0,0.0499,0.0488,0.0473,0.0457,0.0469,0.0472,0.0475,0.0516,0.0547,0.0575,0.0565,0.0642,0.0663,0.0751,0.0773,0.078,0.0765,0.0763,0.079,0.0791,0.0793,0.0794,0.0795,0.0778,0.0777,0.0777,0.0777,0,0.0492,0.0478,0.0466,0.0458,0.0466,0.0468,0.0506,0.0537,0.0562,0.0591,0.0653,0.0697,0.0739,0.0762,0.0782,0.0824,0.0808,0.0796,0.077,0.08,0.08,0.0801,0.0782,0.0781,0.078,0.0779,0,0,0.0504,0.0474,0.0466,0.0462,0.0469,0.0476,0.0538,0.0592,0.0638,0.0663,0.0721,0.0791,0.0786,0.0816,0.0855,0.0855,0.0867,0.0825,0.0823,0.0825,0.0853,0.0825,0.0823,0.0852,0.0852,0.0852,0.0858,0,0.0506,0.0492,0.0483,0.0487,0.0481,0.0511,0.0566,0.061,0.0672,0.0727,0.0771,0.0813,0.0825,0.0841,0.0856,0.0857,0.0865,0.0866,0.0824,0.0823,0.0792,0.0821,0.0852,0.0858,0.0858,0.0858,0.0858,0,0.0464,0.0489,0.0496,0.0497,0.0496,0.0504,0.0591,0.064,0.072,0.0775,0.0825,0.0834,0.0877,0.0859,0.0882,0.0876,0.0864,0.0855,0.0855,0.0799,0.0794,0.0815,0.0857,0.0857,0.0857,0.0858,0.0858,0,0.0448,0.0455,0.0481,0.0488,0.0524,0.0537,0.0548,0.0624,0.0664,0.078,0.0804,0.0866,0.0875,0.0872,0.0863,0.0858,0.0857,0.0853,0.0827,0.0825,0.0821,0.0818,0.0847,0.0847,0.0847,0.0847,0.0847,0,0.0414,0.0418,0.0469,0.0486,0.0522,0.0513,0.0555,0.0618,0.0661,0.0707,0.0798,0.0842,0.0863,0.0866,0.0864,0.085,0.0864,0.0825,0.0821,0.085,0.0851,0.0822,0.0819,0.0848,0.0847,0.0847,0.0847,0,0.0362,0.0381,0.043,0.05,0.0496,0.0519,0.0502,0.0556,0.0605,0.0674,0.0683,0.0773,0.0797,0.0827,0.0825,0.0839,0.0831,0.0823,0.0863,0.0862,0.0804,0.0804,0.0788,0.0787,0.0786,0.0786,0.0785,0,0.0351,0.0367,0.0459,0.0488,0.051,0.0523,0.054,0.0545,0.0596,0.0637,0.0673,0.0677,0.0755,0.0737,0.0785,0.0801,0.0797,0.081,0.0796,0.0798,0.0796,0.0797,0.0799,0.0784,0.0783,0.0783,0.0783,0,0.0392,0.0417,0.0474,0.0524,0.0543,0.0585,0.0576,0.0559,0.0593,0.064,0.0627,0.0623,0.0671,0.0693,0.0717,0.073,0.0811,0.0801,0.0802,0.0789,0.0792,0.0791,0.0794,0.078,0.078,0.0781,0.0781,0,0.0444,0.0481,0.0525,0.0558,0.0597,0.0609,0.0597,0.059,0.057,0.0575,0.0564,0.0612,0.0635,0.0656,0.0679,0.0693,0.0686,0.0688,0.0695,0.0699,0.0675,0.0666,0.0607,0,0,0,0,0,0.0511,0.0501,0.0546,0.0562,0.0608,0.0613,0.063,0.0626,0.0611,0.0588,0.054,0.0574,0.058,0.0605,0.0603,0.0687,0.0721,0.069,0.0733,0.0763,0.0767,0.0752,0,0,0,0,0,0,0.0531,0.0555,0.0545,0.0566,0.0574,0.0603,0.061,0.0605,0.0567,0.0554,0.055,0.0567,0.0581,0.0561,0.0595,0.061,0.0636,0.0709,0.0709,0.0761,0.0764,0.0767,0.0753,0,0,0,0,0]}]]